Location: Boulder, CO
(40.0083°N, 105.2472°W)
Time: 03:48:48
(UTC-06:00)

SORCE - Visible Passes

Search period start: 02 July 2015 00:00
Search period end: 12 July 2015 00:00
Orbit: 588 x 622 km, 40.0° (Epoch: 30 June)

Date Brightness Start Highest point End Pass type
(mag) Time Alt. Az. Time Alt. Az. Time Alt. Az.
08 Jul 8.5 04:41:36 10° SSE 04:42:30 11° SE 04:43:35 10° SE visible
09 Jul 8.0 04:51:00 10° S 04:54:06 19° SSE 04:57:18 10° ESE visible
10 Jul 7.3 05:01:50 10° SSW 05:05:45 29° SSE 05:09:43 10° E visible
11 Jul 8.2 03:35:44 12° SSE 03:36:08 13° SE 03:38:09 10° ESE visible
